Regional Weather Roundup
Issued by NWS

Home | Current Version | Previous Version | Graphics & Text | Print | Product List | Glossary On
Versions: 1 2 3 4 5 6 7 8 9 10 11 12 13 14 15 16 17 18 19 20 21 22 23 24 25 26 27 28 29 30 31 32 33 34 35 36 37 38 39 40 41 42 43 44 45 46 47 48 49 50
000
ASUS44 KMEG 252100
RWRTN
TENNESSEE HOURLY STATE WEATHER ROUNDUP
NATIONAL WEATHER SERVICE MEMPHIS TN
300 PM CST SAT FEB 25 2017

TNZ002-004-019-021-049-052-054-088>092-252200-
WEST TENNESSEE

CITY           SKY/WX    TMP DP  RH WIND       PRES   REMARKS
MEMPHIS INTL   SUNNY     46  23  40 W13G20    30.13S
NWS MEMPHIS      N/A     46 N/A N/A MISG        N/A
JACKSON        SUNNY     45  22  40 W14       30.11R
UNION CITY     SUNNY     41  14  33 W10       30.09S
PARIS          SUNNY     39  19  45 NW10      30.08R WCI  32
$$

TNZ008-025-027-028-033-062-065-066-252200-
NORTH MIDDLE TENNESSEE

CITY           SKY/WX    TMP DP  RH WIND       PRES   REMARKS
NASHVILLE      MOSUNNY   49  16  26 NW12      30.03R
CLARKSVILLE    SUNNY     44  18  35 NW16      30.04R
SMYRNA         SUNNY     47  18  31 NW10G17   30.04R
CROSSVILLE     SUNNY     42  18  37 NW16G23   29.95R
$$

TNZ061-075-076-078-094-096-097-252200-
SOUTH MIDDLE TENNESSEE

CITY           SKY/WX    TMP DP  RH WIND       PRES   REMARKS
TULLAHOMA      SUNNY     46  14  27 W14       30.01R
WINCHESTER     SUNNY     48  21  34 NW9       30.00R
MCMINNVILLE    SUNNY     46  18  31 NW12      29.99R
COLUMBIA       SUNNY     48  18  29 W6        30.01S
SHELBYVILLE    SUNNY     50  21  32 NW13      30.02R
$$

TNZ017-018-042-046-047-252200-
NORTHEAST TENNESSEE

CITY           SKY/WX    TMP DP  RH WIND       PRES   REMARKS
TRI CITIES     MOSUNNY   53  30  41 NW17G30   29.81R
$$

TNZ012-013-036-069-073-074-252200-
CENTRAL EAST TENNESSEE

CITY           SKY/WX    TMP DP  RH WIND       PRES   REMARKS
KNOXVILLE      MOSUNNY   53  25  33 W20G25    29.89R
OAK RIDGE      MOSUNNY   51  22  31 W8G20     29.93R
GATLINBURG     SUNNY     55  25  30 W13       29.87R
$$

TNZ083-085-099-252200-
SOUTHEAST TENNESSEE

CITY           SKY/WX    TMP DP  RH WIND       PRES   REMARKS
CHATTANOOGA    MOSUNNY   55  19  24 NW16      29.95R
$$

SKY/WX REPORTED AS FAIR MEANS FEW OR NO CLOUDS BELOW
12 THOUSAND FEET.





USA.gov is the U.S. government's official web portal to all federal, state and local government web resources and services.